Location: Unspecified
(54.1780°N, 0.0000°E)
Time: 14:18:56
(UTC+00:00)

S-56A Canister/Altair - Pass Details

Date: 21 June 2019
Orbit: 632 x 2500 km, 38.9° (Epoch: 15 July)

Event Time Altitude Azimuth Distance (km) Brightness Sun altitude
Rises 18:13:08 0° 243° (WSW) 4,323 12.1 17.2°
Reaches altitude 10° 18:17:19 10° 228° (SW) 2,991 11.1 16.6°
Maximum altitude 18:21:57 19° 186° (S) 2,038 9.7 16.0°
Drops below altitude 10° 18:25:44 10° 142° (SE) 2,344 9.6 15.5°
Sets 18:28:31 0° 123° (ESE) 3,105 10.0 15.1°
